Weather History for New Castle, PA

Change the Weather History Date:

Sunday, November 18, 2012

  Actual Average Record
Temperature  
Mean Temperature 40 °F -  
Max Temperature 54 °F 50 °F 76 °F (1958)
Min Temperature 26 °F 32 °F 10 °F (1959)
Degree Days  
Heating Degree Days 25    
Moisture  
Dew Point 28 °F    
Average Humidity 67    
Maximum Humidity 92    
Minimum Humidity 39    
Precipitation  
Precipitation 0.00 in - - ()
Sea Level Pressure  
Sea Level Pressure 30.58 in    
Wind  
Wind Speed 2 mph (ESE)    
Max Wind Speed 8 mph    
Max Gust Speed -    
Visibility 10 miles    
Events      
Averages and records for this station are not official NWS values.
T = Trace of Precipitation, MM = Missing Value Source: NWS Daily Summary

Daily Weather History Graph

Daily Weather History Graph

Search for Another Location

Airport:

Trip Planner

Search our weather history database for the weather conditions in past years. The results will help you decide how hot, cold, wet, or windy it might be!

Date:

Astronomy

Nov. 18, 2012 Rise Set
Actual Time 7:13 AM EST 5:00 PM EST
Civil Twilight 6:43 AM EST 5:29 PM EST
Nautical Twilight 6:10 AM EST 6:03 PM EST
Astronomical Twilight 5:37 AM EST 6:36 PM EST
Moon 11:38 AM EST (11/18) 10:18 PM EST (11/18)
Length of Visible Light 10h 46m
Length of Day
9h 46m
Waxing Crescent, 30% of the Moon is Illuminated
Nov 18
Waxing Crescent
Nov 20
First Quarter
Nov 28
Full
Dec 6
Last Quarter
Dec 13
New

Hourly Weather History & Observations

Time (EST) Temp. Windchill Dew Point Humidity Pressure Visibility Wind Dir Wind Speed Gust Speed Precip Events Conditions
12:56 AM 29.1 °F - 26.1 °F 88% 30.62 in 7.0 mi Calm Calm - N/A   Clear
1:56 AM 27.1 °F - 24.1 °F 88% 30.61 in 10.0 mi Calm Calm - N/A   Clear
2:56 AM 30.0 °F - 27.1 °F 89% 30.62 in 10.0 mi Calm Calm - N/A   Clear
3:56 AM 26.1 °F - 23.0 °F 88% 30.61 in 9.0 mi Calm Calm - N/A   Clear
4:56 AM 27.1 °F - 25.2 °F 92% 30.62 in 10.0 mi Calm Calm - N/A   Clear
5:56 AM 27.1 °F - 25.2 °F 92% 30.63 in 10.0 mi Calm Calm - N/A   Clear
6:56 AM 30.0 °F 24.1 °F 25.2 °F 82% 30.62 in 10.0 mi East 5.8 mph - N/A   Clear
7:56 AM 31.1 °F - 26.1 °F 82% 30.63 in 10.0 mi Calm Calm - N/A   Clear
8:56 AM 36.9 °F 33.1 °F 29.1 °F 74% 30.63 in 10.0 mi East 4.6 mph - N/A   Clear
9:56 AM 43.0 °F 38.2 °F 31.1 °F 63% 30.62 in 10.0 mi East 8.1 mph - N/A   Clear
10:56 AM 46.9 °F - 32.0 °F 56% 30.61 in 10.0 mi South 3.5 mph - N/A   Clear
11:56 AM 50.9 °F - 30.0 °F 45% 30.58 in 10.0 mi Variable 5.8 mph - N/A   Clear
12:56 PM 52.0 °F - 30.0 °F 43% 30.56 in 10.0 mi Calm Calm - N/A   Clear
1:56 PM 54.0 °F - 29.1 °F 39% 30.54 in 10.0 mi ESE 4.6 mph - N/A   Clear
2:56 PM 54.0 °F - 29.1 °F 39% 30.53 in 10.0 mi Calm Calm - N/A   Clear
3:56 PM 52.9 °F - 30.0 °F 42% 30.53 in 10.0 mi East 6.9 mph - N/A   Clear
5:56 PM 45.9 °F - 29.1 °F 52% 30.54 in 10.0 mi Calm Calm - N/A   Clear
6:56 PM 43.9 °F - 29.1 °F 56% 30.55 in 10.0 mi Calm Calm - N/A   Clear
7:56 PM 43.0 °F 38.8 °F 28.0 °F 56% 30.54 in 10.0 mi ESE 6.9 mph - N/A   Clear
8:56 PM 41.0 °F 36.4 °F 29.1 °F 63% 30.54 in 10.0 mi East 6.9 mph - N/A   Clear
9:56 PM 38.8 °F 34.6 °F 29.1 °F 68% 30.53 in 10.0 mi ESE 5.8 mph - N/A   Clear
10:56 PM 37.9 °F 34.4 °F 29.1 °F 71% 30.53 in 10.0 mi ESE 4.6 mph - N/A   Clear
11:56 PM 36.0 °F 33.3 °F 29.1 °F 76% 30.51 in 10.0 mi ESE 3.5 mph - N/A   Clear